Location: Untermarchtal
(48.2403°N, 9.6117°E)
Time: 10:07:13
(UTC+01:00)

ISS - Pass Details

Date: 04 January 2018
Orbit: 402 x 407 km, 51.6° (Epoch: 21 January)

Event Time Altitude Azimuth Distance (km) Brightness Sun altitude
Exits shadow 06:53:14 22° 295° (WNW) 938 -2.6 -12.5°
Maximum altitude 06:54:59 44° 357° (N) 575 -3.3 -12.2°
Drops below altitude 10° 06:58:10 10° 71° (ENE) 1,472 -0.2 -11.7°
Sets 07:00:19 0° 78° (ENE) 2,334 1.1 -11.4°
